Location: Chochol
(49.7771°N, 14.9780°E)
Time: 21:44:56
(UTC+00:00)

Terra - Pass Details

Date: 09 April 2020
Orbit: 701 x 703 km, 98.2° (Epoch: 03 June)

Event Time Altitude Azimuth Distance (km) Brightness Sun altitude
Exits shadow 18:50:34 - 78° (ENE) 2,367 4.1 -10.8°
Reaches altitude 10° 18:52:00 10° 62° (ENE) 2,180 4.0 -11.0°
Maximum altitude 18:52:55 11° 51° (NE) 2,146 4.1 -11.1°
Drops below altitude 10° 18:53:49 10° 40° (NE) 2,182 4.2 -11.3°
Sets 18:58:09 0° 2° (N) 3,108 5.5 -11.9°
